Date String (YYYY-MM-DD hh:mm:ss) UTC,Instrument flags,Ambient pressure (hPa),Sample flow (lpm),Bypass flow (lpm),Sample temperature (°C),Ambient temperature (°C),ASC tube jacket temperature (°C),LED temperature (°C),Box temperature (°C),Sample RH (%),Span deviation,Mass concentration (μg/m³),Mass concentration (μg/m³),Mass concentration (μg/m³)
DateTimeUTC,F1_M11,P_M11,Q1_M11,Q2_M11,T1_M11,T2_M11,T3_M11,T4_M11,T5_M11,U1_M11,ZSPAN_M11,X2_M11,X0_M11,X1_M11
2023-04-13 23:00:00,,0813.3,5.01,0.00,30.3,27.4,00.0,38.7,31.6,07.5,0000.0,0002.50,0007.60,0001.60
2023-04-13 23:01:00,,0813.3,5.01,0.00,30.3,27.6,00.0,38.7,31.6,07.5,0000.0,0002.48,0007.48,0001.60
2023-04-13 23:02:00,,0813.3,5.00,0.00,30.3,27.9,00.0,38.7,31.7,07.4,0000.0,0002.44,0007.32,0001.59
2023-04-13 23:03:00,,0813.3,5.00,0.00,30.3,28.1,00.0,38.7,31.8,07.3,0000.0,0002.44,0007.48,0001.58
2023-04-13 23:04:00,,0813.3,5.00,0.00,30.3,28.3,00.0,38.7,31.8,07.4,0000.0,0002.37,0007.77,0001.57
2023-04-13 23:05:00,,0813.3,5.00,0.00,30.3,28.4,00.0,38.7,31.8,07.3,0000.0,0002.34,0007.80,0001.57
2023-04-13 23:06:00,,0813.3,5.00,0.00,30.3,28.5,00.0,38.7,31.9,07.3,0000.0,0002.30,0007.79,0001.56
2023-04-13 23:07:00,,0813.2,5.00,0.00,30.3,28.6,00.0,38.7,31.9,07.5,0000.0,0002.24,0007.40,0001.55
2023-04-13 23:08:00,,0813.2,5.01,0.00,30.3,28.7,00.0,38.7,31.9,07.5,0000.0,0002.21,0007.70,0001.53
2023-04-13 23:09:00,,0813.1,5.00,0.00,30.4,28.8,00.0,38.7,31.9,07.5,0000.0,0002.17,0007.87,0001.53
2023-04-13 23:10:00,,0813.1,5.00,0.00,30.4,28.8,00.0,38.7,31.9,07.5,0000.0,0002.18,0007.88,0001.53
2023-04-13 23:11:00,,0813.2,4.99,0.00,30.4,28.9,00.0,38.7,31.9,07.5,0000.0,0002.21,0007.42,0001.52
2023-04-13 23:12:00,,0813.1,5.00,0.00,30.4,28.9,00.0,38.7,31.9,07.5,0000.0,0002.19,0007.69,0001.52
2023-04-13 23:13:00,,0813.1,4.99,0.00,30.4,28.9,00.0,38.8,32.0,07.4,0000.0,0002.21,0008.13,0001.50
2023-04-13 23:14:00,,0813.1,5.00,0.00,30.4,28.9,00.0,38.8,31.9,07.4,0000.0,0002.24,0008.35,0001.50
2023-04-13 23:15:00,,0813.2,4.99,0.00,30.4,28.9,00.0,38.8,32.0,07.5,0000.0,0002.26,0008.37,0001.50
2023-04-13 23:16:00,,0813.2,5.00,0.00,30.4,28.9,00.0,38.8,32.0,07.5,0000.0,0002.19,0007.95,0001.48
2023-04-13 23:17:00,,0813.2,5.00,0.00,30.4,28.9,00.0,38.8,32.0,07.6,0000.0,0002.19,0007.93,0001.46
2023-04-13 23:18:00,,0813.2,5.00,0.00,30.4,29.0,00.0,38.8,32.0,07.6,0000.0,0002.21,0007.93,0001.46
2023-04-13 23:19:00,,0813.3,5.01,0.00,30.5,29.0,00.0,38.8,32.0,07.6,0000.0,0002.24,0008.05,0001.46
2023-04-13 23:20:00,,0813.3,5.01,0.00,30.5,29.0,00.0,38.8,32.0,07.6,0000.0,0002.25,0008.85,0001.45
2023-04-13 23:21:00,,0813.2,5.01,0.00,30.5,29.0,00.0,38.8,32.0,07.5,0000.0,0002.26,0008.84,0001.44
2023-04-13 23:22:00,,0813.3,5.01,0.00,30.5,29.0,00.0,38.8,32.0,07.4,0000.0,0002.26,0008.80,0001.45
2023-04-13 23:23:00,,0813.3,5.00,0.00,30.5,29.0,00.0,38.8,32.1,07.5,0000.0,0002.25,0008.49,0001.44
2023-04-13 23:24:00,,0813.3,5.00,0.00,30.5,29.1,00.0,38.8,32.1,07.5,0000.0,0002.24,0008.11,0001.45
2023-04-13 23:25:00,,0813.3,4.98,0.00,30.5,29.1,00.0,38.8,32.1,07.4,0000.0,0002.20,0007.83,0001.45
2023-04-13 23:26:00,,0813.3,4.99,0.00,30.5,29.1,00.0,38.9,32.1,07.4,0000.0,0002.18,0007.29,0001.45
2023-04-13 23:27:00,,0813.3,5.00,0.00,30.5,29.1,00.0,38.9,32.1,07.3,0000.0,0002.18,0007.41,0001.45
2023-04-13 23:28:00,,0813.3,5.00,0.00,30.5,29.1,00.0,38.9,32.1,07.3,0000.0,0002.17,0008.20,0001.47
2023-04-13 23:29:00,,0813.3,5.00,0.00,30.5,29.0,00.0,38.9,32.1,07.3,0000.0,0002.17,0008.24,0001.47
2023-04-13 23:30:00,,0813.3,5.00,0.00,30.5,28.9,00.0,38.9,32.1,07.3,0000.0,0002.38,0008.85,0001.48
2023-04-13 23:31:00,,0813.3,4.99,0.00,30.5,27.6,00.0,38.8,31.9,07.2,0000.0,0002.43,0008.14,0001.49
2023-04-13 23:32:00,,0813.2,5.00,0.00,30.5,26.4,00.0,38.7,31.7,07.4,0000.0,0002.44,0008.32,0001.49
2023-04-13 23:33:00,,0813.2,5.02,0.00,30.4,26.4,00.0,38.7,31.6,07.3,0000.0,0002.46,0008.40,0001.50
2023-04-13 23:34:00,,0813.3,5.00,0.00,30.3,26.6,00.0,38.7,31.5,07.4,0000.0,0002.47,0008.44,0001.50
2023-04-13 23:35:00,,0813.2,4.98,0.00,30.2,26.9,00.0,38.7,31.5,07.4,0000.0,0002.47,0009.29,0001.50
2023-04-13 23:36:00,,0813.2,5.01,0.00,30.2,27.2,00.0,38.7,31.5,07.4,0000.0,0002.48,0009.60,0001.51
2023-04-13 23:37:00,,0813.2,5.00,0.00,30.2,27.5,00.0,38.7,31.5,07.3,0000.0,0002.47,0010.10,0001.50
2023-04-13 23:38:00,,0813.2,5.00,0.00,30.2,27.7,00.0,38.6,31.6,07.3,0000.0,0002.53,0010.20,0001.51
2023-04-13 23:39:00,,0813.3,5.00,0.00,30.2,27.9,00.0,38.6,31.6,07.3,0000.0,0002.58,0009.46,0001.50
2023-04-13 23:40:00,,0813.3,5.00,0.00,30.1,28.0,00.0,38.6,31.6,07.3,0000.0,0002.58,0009.59,0001.49
2023-04-13 23:41:00,,0813.3,5.01,0.00,30.1,28.1,00.0,38.6,31.6,07.3,0000.0,0002.43,0009.58,0001.49
2023-04-13 23:42:00,,0813.3,5.01,0.00,30.2,28.2,00.0,38.6,31.6,07.3,0000.0,0002.30,0008.82,0001.49
2023-04-13 23:43:00,,0813.3,5.00,0.00,30.2,28.3,00.0,38.6,31.7,07.4,0000.0,0002.29,0009.23,0001.49
2023-04-13 23:44:00,,0813.3,5.00,0.00,30.2,28.4,00.0,38.6,31.7,07.4,0000.0,0002.28,0009.16,0001.47
2023-04-13 23:45:00,,0813.3,4.99,0.00,30.2,28.4,00.0,38.6,31.7,07.3,0000.0,0002.29,0009.22,0001.46
2023-04-13 23:46:00,,0813.2,5.00,0.00,30.2,28.5,00.0,38.6,31.7,07.3,0000.0,0002.31,0008.65,0001.46
2023-04-13 23:47:00,,0813.2,5.00,0.00,30.2,28.5,00.0,38.6,31.8,07.3,0000.0,0002.31,0008.18,0001.45
2023-04-13 23:48:00,,0813.2,5.00,0.00,30.2,28.6,00.0,38.6,31.8,07.3,0000.0,0002.34,0007.85,0001.45
2023-04-13 23:49:00,,0813.2,5.01,0.00,30.2,28.6,00.0,38.6,31.8,07.2,0000.0,0002.32,0008.20,0001.44
2023-04-13 23:50:00,,0813.3,5.00,0.00,30.2,28.6,00.0,38.6,31.8,07.2,0000.0,0002.29,0008.59,0001.43
2023-04-13 23:51:00,,0813.3,5.00,0.00,30.2,28.6,00.0,38.6,31.8,07.2,0000.0,0002.24,0008.48,0001.43
2023-04-13 23:52:00,,0813.3,5.00,0.00,30.2,28.7,00.0,38.6,31.8,07.3,0000.0,0002.22,0007.74,0001.42
2023-04-13 23:53:00,,0813.3,5.00,0.00,30.3,28.7,00.0,38.6,31.8,07.4,0000.0,0002.23,0007.41,0001.41
2023-04-13 23:54:00,,0813.3,5.00,0.00,30.3,28.7,00.0,38.6,31.8,07.2,0000.0,0002.21,0006.79,0001.41
2023-04-13 23:55:00,,0813.3,5.00,0.00,30.3,28.7,00.0,38.6,31.8,07.2,0000.0,0002.18,0006.04,0001.41
2023-04-13 23:56:00,,0813.4,5.00,0.00,30.3,28.7,00.0,38.6,31.9,07.2,0000.0,0002.21,0006.15,0001.41
2023-04-13 23:57:00,,0813.4,5.00,0.00,30.3,28.7,00.0,38.6,31.9,07.2,0000.0,0002.18,0006.04,0001.41
2023-04-13 23:58:00,,0813.3,5.00,0.00,30.3,28.7,00.0,38.6,31.9,07.3,0000.0,0002.15,0005.95,0001.39
2023-04-13 23:59:00,,0813.3,5.00,0.00,30.3,28.8,00.0,38.7,31.9,07.2,0000.0,0002.13,0005.85,0001.40
